Location: Hertford
(51.8000°N, 0.0667°W)
Time: 15:30:34
(UTC+00:00)

ATLAS 2AS CENTAUR R/B - Pass Details

Date: 18 September 2020
Orbit: 939 x 1273 km, 63.7° (Epoch: 26 October)

Event Time Altitude Azimuth Distance (km) Brightness Sun altitude
Rises 21:01:59 0° 201° (SSW) 4,196 5.6 -25.6°
Enters shadow 21:04:48 10° 198° (SSW) 3,255 5.0 -25.9°
Exits shadow 21:11:56 54° 138° (SE) 1,510 3.0 -26.8°
Maximum altitude 21:12:29 55° 123° (ESE) 1,495 3.0 -26.8°
Drops below altitude 10° 21:20:06 10° 49° (NE) 3,225 5.2 -27.7°
Sets 21:22:54 0° 45° (NE) 4,165 5.8 -28.0°
